TimeEST,TemperatureF,Dew PointF,Humidity,Sea Level PressureIn,VisibilityMPH,Wind Direction,Wind SpeedMPH,Gust SpeedMPH,PrecipitationIn,Events,Conditions,WindDirDegrees,DateUTC
12:53 AM,30.0,26.1,85,29.91,10.0,Calm,Calm,-,N/A,,Partly Cloudy,0,2014-01-15 05:53:00
1:53 AM,30.0,26.1,85,29.90,10.0,Calm,Calm,-,N/A,,Partly Cloudy,0,2014-01-15 06:53:00
2:53 AM,30.0,26.1,85,29.90,10.0,Calm,Calm,-,N/A,,Partly Cloudy,0,2014-01-15 07:53:00
3:53 AM,28.9,25.0,85,29.90,10.0,Calm,Calm,-,N/A,,Partly Cloudy,0,2014-01-15 08:53:00
4:53 AM,30.0,27.0,88,29.91,9.0,Calm,Calm,-,N/A,,Overcast,0,2014-01-15 09:53:00
5:53 AM,30.0,27.0,88,29.94,9.0,Calm,Calm,-,N/A,,Overcast,0,2014-01-15 10:53:00
6:02 AM,30.0,28.0,92,29.95,9.0,Calm,Calm,-,N/A,,Overcast,0,2014-01-15 11:02:00
6:53 AM,33.1,28.9,85,29.96,10.0,West,5.8,-,N/A,,Overcast,270,2014-01-15 11:53:00
7:53 AM,35.1,28.9,78,29.99,10.0,WNW,11.5,-,N/A,,Overcast,290,2014-01-15 12:53:00
8:03 AM,35.1,28.9,78,30.00,10.0,WNW,10.4,-,0.00,Snow,Light Snow,290,2014-01-15 13:03:00
8:23 AM,34.0,30.0,85,30.01,2.5,Calm,Calm,-,0.01,Snow,Light Snow,0,2014-01-15 13:23:00
8:53 AM,34.0,30.0,85,30.02,2.0,WSW,3.5,-,0.01,Snow,Light Snow,250,2014-01-15 13:53:00
9:13 AM,33.1,30.0,89,30.03,2.0,SW,3.5,-,0.00,Snow,Light Snow,230,2014-01-15 14:13:00
9:26 AM,34.0,30.0,85,30.03,2.0,SSW,3.5,-,0.01,Snow,Light Snow,210,2014-01-15 14:26:00
9:53 AM,34.0,30.9,89,30.03,2.0,SW,4.6,-,0.01,Snow,Light Snow,230,2014-01-15 14:53:00
10:03 AM,34.0,30.9,89,30.03,2.0,SW,4.6,-,0.00,Snow,Light Snow,220,2014-01-15 15:03:00
10:25 AM,35.1,32.0,89,30.02,2.0,SW,3.5,-,0.01,Snow,Light Snow,220,2014-01-15 15:25:00
10:53 AM,35.1,30.9,85,30.02,2.0,SW,4.6,-,0.01,Snow,Light Snow,220,2014-01-15 15:53:00
11:53 AM,36.0,32.0,86,30.00,2.0,Calm,Calm,-,0.00,Snow,Light Snow,0,2014-01-15 16:53:00
12:53 PM,36.0,30.0,79,29.96,2.0,SW,5.8,-,0.00,,Haze,220,2014-01-15 17:53:00
1:01 PM,36.0,30.0,79,29.95,10.0,SSW,5.8,-,N/A,,Overcast,200,2014-01-15 18:01:00
1:36 PM,37.0,30.0,76,29.94,10.0,SSW,5.8,-,N/A,,Overcast,210,2014-01-15 18:36:00
1:49 PM,37.4,28.4,70,29.94,10.0,SSW,5.8,-,N/A,,Overcast,210,2014-01-15 18:49:00
1:53 PM,37.0,28.9,73,29.94,10.0,SW,5.8,-,0.00,Rain,Light Rain,230,2014-01-15 18:53:00
2:19 PM,36.0,30.0,79,29.93,3.0,Calm,Calm,-,0.00,Snow,Light Snow,0,2014-01-15 19:19:00
2:27 PM,37.0,30.0,76,29.93,7.0,Calm,Calm,-,0.00,,Mostly Cloudy,0,2014-01-15 19:27:00
2:53 PM,37.9,30.0,73,29.93,10.0,ESE,4.6,-,0.01,,Mostly Cloudy,110,2014-01-15 19:53:00
3:53 PM,37.9,28.9,70,29.92,10.0,Calm,Calm,-,N/A,,Mostly Cloudy,0,2014-01-15 20:53:00
4:53 PM,37.0,21.9,54,29.92,10.0,SW,5.8,-,N/A,,Mostly Cloudy,220,2014-01-15 21:53:00
5:53 PM,35.1,27.0,72,29.93,10.0,West,5.8,-,0.00,,Mostly Cloudy,260,2014-01-15 22:53:00
6:53 PM,36.0,18.0,48,29.95,10.0,WNW,12.7,-,N/A,,Overcast,300,2014-01-15 23:53:00
7:53 PM,34.0,18.0,52,29.99,10.0,WNW,11.5,-,N/A,,Overcast,300,2014-01-16 00:53:00
8:53 PM,32.0,18.0,56,30.00,10.0,WNW,4.6,-,N/A,,Overcast,290,2014-01-16 01:53:00
9:53 PM,32.0,16.0,52,30.01,10.0,NNW,5.8,-,N/A,,Mostly Cloudy,330,2014-01-16 02:53:00
10:53 PM,30.0,16.0,56,30.01,10.0,NNE,9.2,-,N/A,,Overcast,20,2014-01-16 03:53:00
11:53 PM,28.0,15.1,58,30.01,10.0,North,6.9,-,N/A,,Overcast,360,2014-01-16 04:53:00